FW1404 Weather Reports


Display with metric or nautical units.
time (UTC)temp
F
wind
direction
speed
MPH
gust
MPH
rain 1hr
in
rain 24hr
in
rain mn
in
humidity
%
barometer
mb
20260504034236 61 222 4.0 6.0 0.00 0.00 0.00 60 1011.4
20260504033735 61 239 2.0 4.0 0.00 0.00 0.00 59 1011.3
20260504033232 61 239 4.0 4.0 0.00 0.00 0.00 59 1011.5
20260504033021 61 266 2.0 4.0 0.00 0.00 0.00 59 1011.4
20260504032235 61 258 2.0 6.0 0.00 0.00 0.00 59 1011.3
20260504031735 61 276 4.0 6.0 0.00 0.00 0.00 59 1011.2
20260504031235 61 259 4.0 6.0 0.00 0.00 0.00 59 1011.4
20260504030734 61 234 4.0 6.0 0.00 0.00 0.00 59 1011.3
20260504030234 61 265 4.0 4.0 0.00 0.00 0.00 58 1011.3
20260504025735 61 265 3.0 6.0 0.00 0.00 0.00 58 1011.1
20260504025519 61 252 4.0 7.0 0.00 0.00 0.00 58 1011.3
20260504024733 61 251 3.0 9.0 0.00 0.00 0.00 58 1011.2
20260504024233 61 232 6.0 9.0 0.00 0.00 0.00 59 1011.2
20260504023733 61 273 4.0 9.0 0.00 0.00 0.00 59 1011.3
20260504023232 60 227 5.0 9.0 0.00 0.00 0.00 59 1011.2
20260504022735 60 258 4.0 7.0 0.00 0.00 0.00 59 1011.2
20260504022231 60 235 5.0 7.0 0.00 0.00 0.00 58 1011.1
20260504021734 60 249 3.0 5.0 0.00 0.00 0.00 58 1011.1
20260504021233 61 258 4.0 5.0 0.00 0.00 0.00 58 1011.1
20260504020731 61 253 3.0 5.0 0.00 0.00 0.00 57 1011.0
20260504020230 61 255 2.0 5.0 0.00 0.00 0.00 57 1011.0
20260504015735 62 255 4.0 5.0 0.00 0.00 0.00 56 1010.8
20260504015231 62 231 3.0 6.0 0.00 0.00 0.00 56 1010.9
20260504014733 62 248 3.0 6.0 0.00 0.00 0.00 56 1010.8
20260504014233 62 239 5.0 7.0 0.00 0.00 0.00 55 1010.7
20260504013733 62 246 4.0 9.0 0.00 0.00 0.00 55 1010.7
20260504013232 63 229 4.0 9.0 0.00 0.00 0.00 54 1010.7
20260504012733 63 238 4.0 9.0 0.00 0.00 0.00 54 1010.7
20260504012230 63 229 4.0 9.0 0.00 0.00 0.00 54 1010.7
20260504011731 63 252 6.0 9.0 0.00 0.00 0.00 54 1010.4
20260504011232 63 265 6.0 10.0 0.00 0.00 0.00 54 1010.4
20260504010731 63 235 6.0 10.0 0.00 0.00 0.00 54 1010.5
20260504010230 63 238 5.0 11.0 0.00 0.00 0.00 54 1010.4
20260504005732 63 227 8.0 11.0 0.00 0.00 0.00 54 1010.5
20260504005509 63 229 6.0 10.0 0.00 0.00 0.00 54 1010.4
20260504004731 63 238 7.0 10.0 0.00 0.00 0.00 54 1010.3
20260504004518 63 235 6.0 10.0 0.00 0.00 0.00 54 1010.3
20260504003731 63 225 6.0 10.0 0.00 0.00 0.00 55 1010.3
20260504003229 62 218 6.0 12.0 0.00 0.00 0.00 55 1010.3
20260504002732 62 238 7.0 12.0 0.00 0.00 0.00 55 1010.3
20260504002230 62 222 5.0 11.0 0.00 0.00 0.00 55 1010.2
20260504001732 62 218 6.0 11.0 0.00 0.00 0.00 56 1010.3
20260504001231 61 231 7.0 11.0 0.00 0.00 0.00 57 1010.4
20260504000730 61 253 8.0 11.0 0.00 0.00 0.00 58 1010.5
20260504000229 60 249 7.0 11.0 0.00 0.00 0.00 58 1010.5
20260503235731 59 221 7.0 9.0 0.00 0.00 0.00 60 1010.4
20260503235228 59 248 5.0 7.0 0.00 0.00 0.00 60 1010.7
20260503234729 60 260 3.0 6.0 0.00 0.00 0.00 59 1010.7
20260503234230 60 262 4.0 5.0 0.00 0.00 0.00 58 1010.4
20260503233732 60 162 0.0 2.0 0.00 0.00 0.00 58 1010.3
20260503233229 61 162 1.0 2.0 0.00 0.00 0.00 57 1010.2
20260503232732 61 162 1.0 2.0 0.00 0.00 0.00 56 1010.2
20260503232230 62 162 1.0 4.0 0.00 0.00 0.00 55 1010.1
20260503232012 62 162 1.0 4.0 0.00 0.00 0.00 54 1010.2
20260503231231 63 173 2.0 4.0 0.00 0.00 0.00 54 1010.2
20260503230731 63 173 1.0 5.0 0.00 0.00 0.00 53 1010.2
20260503230515 63 174 3.0 5.0 0.00 0.00 0.00 53 1010.1
20260503225730 63 180 2.0 5.0 0.00 0.00 0.00 53 1010.2
20260503225228 63 201 3.0 6.0 0.00 0.00 0.00 53 1010.2
20260503224728 63 180 3.0 6.0 0.00 0.00 0.00 53 1010.1
20260503224252 63 200 4.0 7.0 0.00 0.00 0.00 54 1010.2
20260503223730 62 215 3.0 7.0 0.00 0.00 0.00 55 1010.1
20260503223505 62 201 4.0 7.0 0.00 0.00 0.00 55 1010.1
20260503223001 61 184 4.0 7.0 0.00 0.00 0.00 55 1010.2
20260503222228 61 186 4.0 7.0 0.00 0.00 0.00 55 1010.3
20260503221728 61 186 2.0 3.0 0.00 0.00 0.00 54 1010.3
20260503221230 61 177 1.0 3.0 0.00 0.00 0.00 54 1010.3
20260503221011 62 177 2.0 3.0 0.00 0.00 0.00 54 1010.3
20260503220228 62 177 2.0 2.0 0.00 0.00 0.00 53 1010.5
20260503215728 62 177 1.0 3.0 0.00 0.00 0.00 52 1010.4
20260503215510 63 177 2.0 3.0 0.00 0.00 0.00 52 1010.4
20260503214725 63 177 1.0 3.0 0.00 0.00 0.00 51 1010.5
20260503214227 63 177 2.0 4.0 0.00 0.00 0.00 50 1010.4
20260503213727 64 165 2.0 4.0 0.00 0.00 0.00 50 1010.5
20260503213228 64 165 2.0 4.0 0.00 0.00 0.00 49 1010.4
20260503212726 64 162 2.0 4.0 0.00 0.00 0.00 49 1010.4
20260503212311 65 173 2.0 4.0 0.00 0.00 0.00 47 1010.5
20260503212257 65 172 1.0 4.0 0.00 0.00 0.00 49 1010.5
20260503211224 66 173 2.0 4.0 0.00 0.00 0.00 47 1010.4
20260503210725 66 173 1.0 4.0 0.00 0.00 0.00 46 1010.5
20260503210226 67 177 2.0 4.0 0.00 0.00 0.00 46 1010.5
20260503205724 67 179 2.0 4.0 0.00 0.00 0.00 45 1010.5
20260503205226 68 186 1.0 4.0 0.00 0.00 0.00 45 1010.5
20260503204726 68 186 2.0 6.0 0.00 0.00 0.00 44 1010.5
20260503204511 68 184 2.0 6.0 0.00 0.00 0.00 44 1010.5
20260503203726 69 196 2.0 9.0 0.00 0.00 0.00 43 1010.5
20260503203225 69 172 3.0 9.0 0.00 0.00 0.00 43 1010.5
20260503203008 68 189 3.0 7.0 0.00 0.00 0.00 44 1010.5
20260503202205 68 206 4.0 10.0 0.00 0.00 0.00 45 1010.7
20260503201704 67 194 6.0 10.0 0.00 0.00 0.00 45 1010.7
20260503201203 67 203 4.0 7.0 0.00 0.00 0.00 45 1010.7
20260503200704 67 184 3.0 4.0 0.00 0.00 0.00 45 1010.7
20260503200204 67 187 2.0 5.0 0.00 0.00 0.00 45 1010.7
20260503195705 67 190 3.0 5.0 0.00 0.00 0.00 44 1010.8
20260503195433 67 189 4.0 5.0 0.00 0.00 0.00 44 1010.8
20260503194638 67 191 3.0 5.0 0.00 0.00 0.00 44 1010.9
20260503194422 67 191 4.0 5.0 0.00 0.00 0.00 44 1010.9
20260503193636 68 193 3.0 5.0 0.00 0.00 0.00 44 1010.8
20260503193412 68 191 3.0 5.0 0.00 0.00 0.00 43 1010.8
20260503192636 68 193 3.0 6.0 0.00 0.00 0.00 42 1010.9
20260503192132 69 196 4.0 6.0 0.00 0.00 0.00 42 1010.9
20260503191633 69 200 3.0 5.0 0.00 0.00 0.00 41 1010.9
20260503191133 69 200 3.0 5.0 0.00 0.00 0.00 40 1010.9
20260503190633 70 200 4.0 6.0 0.00 0.00 0.00 40 1010.9
20260503190133 70 200 4.0 6.0 0.00 0.00 0.00 39 1010.9
20260503185637 70 201 4.0 6.0 0.00 0.00 0.00 39 1010.9
20260503185132 70 203 4.0 6.0 0.00 0.00 0.00 40 1010.8
20260503184634 69 206 4.0 6.0 0.00 0.00 0.00 39 1010.8
20260503184133 69 206 5.0 7.0 0.00 0.00 0.00 40 1010.8
20260503183633 70 213 5.0 7.0 0.00 0.00 0.00 40 1010.7
20260503183132 70 201 5.0 5.0 0.00 0.00 0.00 41 1010.7
20260503182634 71 214 3.0 5.0 0.00 0.00 0.00 40 1010.7
20260503182139 71 213 4.0 4.0 0.00 0.00 0.00 40 1010.7
20260503181634 71 213 3.0 5.0 0.00 0.00 0.00 39 1010.5
20260503181132 72 213 4.0 5.0 0.00 0.00 0.00 38 1010.5
20260503180709 73 213 3.0 7.0 0.00 0.00 0.00 36 1010.4
20260503180653 73 213 3.0 5.0 0.00 0.00 0.00 38 1010.5
20260503175922 74 213 4.0 7.0 0.00 0.00 0.00 36 1010.4
20260503175133 74 204 4.0 5.0 0.00 0.00 0.00 36 1010.4
20260503174917 74 215 4.0 6.0 0.00 0.00 0.00 35 1010.4
20260503174133 75 213 4.0 6.0 0.00 0.00 0.00 34 1010.4
20260503173631 75 214 4.0 5.0 0.00 0.00 0.00 33 1010.5
20260503173132 76 206 4.0 5.0 0.00 0.00 0.00 33 1010.5
20260503172632 76 218 3.0 6.0 0.00 0.00 0.00 32 1010.5
20260503172133 76 218 4.0 6.0 0.00 0.00 0.00 32 1010.5
20260503171633 76 221 5.0 6.0 0.00 0.00 0.00 31 1010.5
20260503171133 77 211 4.0 7.0 0.00 0.00 0.00 31 1010.5
20260503170632 77 220 5.0 9.0 0.00 0.00 0.00 29 1010.5
20260503170130 78 220 7.0 10.0 0.00 0.00 0.00 29 1010.4
20260503160133 80 162 5.0 9.0 0.00 0.00 0.00 28 1010.5
20260503150633 81 194 6.0 12.0 0.00 0.00 0.00 28 1011.0
20260503150132 81 193 7.0 13.0 0.00 0.00 0.00 28 1011.1
20260503140132 82 184 11.0 14.0 0.00 0.00 0.00 28 1011.5
20260503131131 82 259 7.0 16.0 0.00 0.00 0.00 30 1012.0
20260503130630 82 189 10.0 15.0 0.00 0.00 0.00 28 1012.2
20260503130132 83 187 5.0 14.0 0.00 0.00 0.00 27 1012.2
20260503120114 82 203 6.0 13.0 0.00 0.00 0.00 29 1012.7
20260503110602 82 220 9.0 16.0 0.00 0.00 0.00 29 1013.2
20260503081606 77 241 10.0 16.0 0.00 0.00 0.00 33 1014.2
20260503081551 77 197 16.0 22.0 0.00 0.00 0.00 32 1014.2
20260503080532 77 200 13.0 16.0 0.00 0.00 0.00 33 1014.1
20260503072525 73 198 11.0 19.0 0.00 0.00 0.00 38 1014.1
20260503072027 72 206 12.0 19.0 0.00 0.00 0.00 39 1014.1
20260503071529 72 207 10.0 16.0 0.00 0.00 0.00 40 1014.1
20260503071026 71 197 9.0 16.0 0.00 0.00 0.00 40 1014.1
20260503070528 71 177 13.0 16.0 0.00 0.00 0.00 41 1014.1
20260503054931 65 194 9.0 15.0 0.00 0.00 0.00 46 1014.2
20260503054426 64 213 8.0 14.0 0.00 0.00 0.00 47 1014.2
20260503053923 64 222 9.0 17.0 0.00 0.00 0.00 46 1014.1
20260503053425 64 244 13.0 17.0 0.00 0.00 0.00 46 1014.2
20260503052925 64 201 11.0 17.0 0.00 0.00 0.00 47 1014.2
20260503052424 64 214 11.0 17.0 0.00 0.00 0.00 47 1014.2
20260503052007 63 225 10.0 14.0 0.00 0.00 0.00 47 1014.3
20260503051949 64 183 10.0 14.0 0.00 0.00 0.00 47 1014.2
20260503051207 63 182 10.0 16.0 0.00 0.00 0.00 48 1014.3
20260503050424 63 215 8.0 18.0 0.00 0.00 0.00 48 1014.3
20260503045924 62 197 12.0 18.0 0.00 0.00 0.00 49 1014.3
20260503045423 61 207 13.0 14.0 0.00 0.00 0.00 51 1014.2
20260503044924 60 208 10.0 14.0 0.00 0.00 0.00 54 1014.3
20260503044423 57 193 8.0 13.0 0.00 0.00 0.00 60 1014.2
20260503043924 55 215 7.0 12.0 0.00 0.00 0.00 63 1014.3
20260503043701 51 200 6.0 12.0 0.00 0.00 0.00 70 1014.2
20260503042924 50 211 3.0 10.0 0.00 0.00 0.00 71 1014.3
20260503042423 49 165 2.0 5.0 0.00 0.00 0.00 71 1014.2
20260503042216 49 159 2.0 4.0 0.00 0.00 0.00 71 1014.3
20260503041422 49 159 2.0 4.0 0.00 0.00 0.00 71 1014.3
20260503041212 49 159 3.0 3.0 0.00 0.00 0.00 71 1014.3
20260503040421 49 159 3.0 4.0 0.00 0.00 0.00 71 1014.5
20260503040009 49 160 2.0 4.0 0.00 0.00 0.00 71 1014.4
20260503035953 49 160 2.0 4.0 0.00 0.00 0.00 71 1014.4
20260503034923 48 160 2.0 4.0 0.00 0.00 0.00 71 1014.4